Estación de Petorca
Ultimos registro cada 15 minutos 45
| N° | Estación | Fecha / Hora | Temperatura | Humedad | Lluvia | Velocidad | Dirección | Radiación | Presion |
| 45 | Petorca | 01-09-2026 11:00 | 18,7 | 64,5 | 0 | 0,5 | 194 | 633,1 | 988,4 |
| 44 | Petorca | 01-09-2026 10:45 | 18,8 | 65,1 | 0 | 0 | 174 | 669,4 | 988,6 |
| 43 | Petorca | 01-09-2026 10:30 | 18,5 | 67,2 | 0 | 0 | 194 | 681,9 | 989,2 |
| 42 | Petorca | 01-09-2026 10:15 | 17,3 | 69,9 | 0 | 0 | 159 | 601,9 | 989,4 |
| 41 | Petorca | 01-09-2026 10:00 | 16,6 | 69,7 | 0 | 0 | 222 | 410,6 | 989,5 |
| 40 | Petorca | 01-09-2026 09:45 | 14,4 | 76,9 | 0 | 0 | 220 | 599,4 | 989,7 |
| 39 | Petorca | 01-09-2026 09:30 | 14,2 | 79,9 | 0 | 0 | 209 | 330,6 | 989,9 |
| 38 | Petorca | 01-09-2026 09:15 | 13,7 | 80,3 | 0 | 0 | 241 | 203,1 | 989,8 |
| 37 | Petorca | 01-09-2026 09:00 | 14,6 | 78,9 | 0 | 0 | 15 | 275,6 | 990 |
| 36 | Petorca | 01-09-2026 08:45 | 12 | 90,2 | 0 | 0 | 14 | 141,9 | 989,9 |
| 35 | Petorca | 01-09-2026 08:30 | 10,9 | 92,4 | 0 | 0 | 358 | 125,6 | 989,8 |
| 34 | Petorca | 01-09-2026 08:15 | 10 | 94,1 | 0 | 0 | 357 | 85,6 | 989,5 |
| 33 | Petorca | 01-09-2026 08:00 | 9,2 | 95,2 | 0 | 0 | 4 | 48,1 | 989,3 |
| 32 | Petorca | 01-09-2026 07:45 | 8,7 | 95,2 | 0 | 0 | 34 | 29,4 | 989 |
| 31 | Petorca | 01-09-2026 07:30 | 8,5 | 95,1 | 0 | 0 | 1 | 15,6 | 989,2 |
| 30 | Petorca | 01-09-2026 07:15 | 8,3 | 95,1 | 0 | 0 | 340 | 4,4 | 989,3 |
| 29 | Petorca | 01-09-2026 07:00 | 8,3 | 94,7 | 0 | 0 | 209 | 1,9 | 989,1 |
| 28 | Petorca | 01-09-2026 06:45 | 8,5 | 94,2 | 0 | 0 | 194 | 0,6 | 989,1 |
| 27 | Petorca | 01-09-2026 06:30 | 8,2 | 95,7 | 0 | 0 | 22 | 0,6 | 988,9 |
| 26 | Petorca | 01-09-2026 06:15 | 7,7 | 96,5 | 0 | 0 | 37 | 0,6 | 989 |
| 25 | Petorca | 01-09-2026 06:00 | 7 | 96,2 | 0 | 0 | 28 | 0,6 | 988,9 |
| 24 | Petorca | 01-09-2026 05:45 | 7 | 95,9 | 0 | 0 | 6 | 0,6 | 989,1 |
| 23 | Petorca | 01-09-2026 05:30 | 6,8 | 95,9 | 0 | 0 | 29 | 0,6 | 989,3 |
| 22 | Petorca | 01-09-2026 05:15 | 6,7 | 95,4 | 0 | 0 | 7 | 0,6 | 989,1 |
| 21 | Petorca | 01-09-2026 05:00 | 7 | 95 | 0 | 0 | 3 | 0,6 | 989,4 |
| 20 | Petorca | 01-09-2026 04:45 | 7,7 | 94,7 | 0 | 0 | 351 | 0,6 | 989,1 |
| 19 | Petorca | 01-09-2026 04:30 | 7,6 | 94,3 | 0 | 0 | 37 | 0,6 | 989,3 |
| 18 | Petorca | 01-09-2026 04:15 | 7,7 | 94,7 | 0 | 0 | 37 | 0,6 | 989,3 |
| 17 | Petorca | 01-09-2026 04:00 | 7,6 | 94,7 | 0 | 0 | 21 | 0,6 | 989,4 |
| 16 | Petorca | 01-09-2026 03:45 | 7,2 | 94,5 | 0 | 0 | 53 | 0,6 | 989,5 |
| 15 | Petorca | 01-09-2026 03:30 | 7,3 | 94,3 | 0 | 0 | 39 | 0,6 | 989,6 |
| 14 | Petorca | 01-09-2026 03:15 | 7,4 | 93,4 | 0 | 0 | 320 | 0,6 | 989,9 |
| 13 | Petorca | 01-09-2026 03:00 | 7,7 | 92,4 | 0 | 0 | 25 | 0,6 | 990,1 |
| 12 | Petorca | 01-09-2026 02:45 | 8,1 | 92 | 0 | 0 | 7 | 0,6 | 990,5 |
| 11 | Petorca | 01-09-2026 02:30 | 8,4 | 90,8 | 0 | 0 | 15 | 0,6 | 990,4 |
| 10 | Petorca | 01-09-2026 02:15 | 9,2 | 90,2 | 0 | 0 | 53 | 0,6 | 990,6 |
| 9 | Petorca | 01-09-2026 02:00 | 9,2 | 91,2 | 0 | 0 | 21 | 0,6 | 990,7 |
| 8 | Petorca | 01-09-2026 01:45 | 8,9 | 90,8 | 0 | 0 | 24 | 0,6 | 991 |
| 7 | Petorca | 01-09-2026 01:30 | 9 | 90,4 | 0 | 0 | 25 | 0,6 | 991,2 |
| 6 | Petorca | 01-09-2026 01:15 | 9 | 90,7 | 0 | 0 | 27 | 0,6 | 991,4 |
| 5 | Petorca | 01-09-2026 01:00 | 9,6 | 88,9 | 0 | 0 | 29 | 0,6 | 991,5 |
| 4 | Petorca | 01-09-2026 00:45 | 10,2 | 87,9 | 0 | 0 | 7 | 0,6 | 991,4 |
| 3 | Petorca | 01-09-2026 00:30 | 10,4 | 86,9 | 0 | 0 | 331 | 0,6 | 991,2 |
| 2 | Petorca | 01-09-2026 00:15 | 10,5 | 85,1 | 0 | 0 | 352 | 0,6 | 991,4 |
| 1 | Petorca | 01-09-2026 00:00 | 10,9 | 85,1 | 0 | 0 | 11 | 0,6 | 991,3 |